COSMOS 1275 DEB, 12672

Orbit data source: Space-Track

COSMOS 1275 DEB, 12672 is space debris in LEO originally from a launch on Thu, 04 Jun 1981 UTC launched from the Plesetsk Missile And Space Complex (PKMTR). Debris objects in space refer to the collection of defunct objects orbiting the Earth. Examples of debris include non-operational satellites, rocket bodies, and fragments generated from explosions, collisions, or faulty payload assembly.

Loading next visibility...
Identifier
12672, 1981-053AC
Orbit
LEO
Country
Flag of CISCIS
Related business
Manufacturer
Unknown
Mission
Spacecraft
Bus & Motor
Unknown
Mass
Unknown
Launch date (UTC)
1981-06-04 (44 years ago)
Launch vehicle
Unknown
Launch site
Plesetsk Missile And Space Complex (PKMTR)
Object type
Payload
Rocket body
Debris
Shape & HBR
Unknown
Radar Cross Section
Medium (>0.1 m² and <1 m²)

Expand to show TLE details & history
Last TLE update: 9 hours ago

TLE from 9 hours ago
0 COSMOS 1275 DEB
1 12672U 81053AC  25260.08458477  .00000470  00000-0  41034-3 0  9999
2 12672  82.9459  15.5966 0024888 313.4646 219.6530 13.83720791220636
Epoch: 2025-09-17T02:01Z
TLE epoch observation values (Epoch: 2025-09-17T02:01:48.124Z)
Latitude
6.93723°
Longitude
168.02228°
Altitude
967.064 km
Speed
7.362 km/s
True Right ascension
12h 58m 57s
True Declination
6° 53' 50"
Sunlit
Object was in daylight at epoch
Visualization orbit readout
Latitude
Unknown
Longitude
Unknown
Altitude
Unknown
Speed
Unknown
Apparent Right ascension
Unknown
Apparent Declination
Unknown
Sunlit
N/A
Visualization observer readout
Local Sidereal Time
04:06:35
Azimuth
Unknown
Elevation
Unknown
Doppler factor
Unknown
Orbital elements
Apogee altitude
966.089 km
Perigee altitude
929.623 km
Semi-major axis
7,325.993 km
Eccentricity
0.00249
Inclination
82.9459°
RAAN
15.5966°
Arg. of periapsis
313.4646°
True anomaly
219.47144°
Mean anomaly
219.653°
Eccentric anomaly
219.56218°
Mean motion
3.46133 °/min
Orbital period
104.01 mins
BSTAR
0.00041034
Loading maneuver chart data...
Computing Atmospheric mass density...
Loading historical data...
Loading historical data...
Loading historical data...
Loading historical data...
Loading historical data...
Loading historical data...
Loading historical data...

Documentation

Showing up to 5 results
|